User: anonymous   Login
Location: Unspecified
(40.7945°N, 0.0000°E)
Time: 23:29:49
(UTC+00:00)
Language:

Tiros 1 despin weight - Orbit

View from above orbital plane
View from above orbital plane
View from above satellite
View from above satellite

Ground track
Ground track

The orbit data is extracted from the following two-line orbital elements,

1 00115U 60002D   21129.34206978 -.00000031  00000-0  23254-4 0  9994
2 00115  48.1652 146.9769 0035230 246.0527 113.6695 14.83759838240201
Epoch (UTC): 09 May 2021 08:12:34
Eccentricity: 0.0035230
inclination: 48.1652°
perigee height: 593 km
apogee height: 642 km
right ascension of ascending node: 146.9769°
argument of perigee: 246.0527°
revolutions per day: 14.83759838
mean anomaly at epoch: 113.6695°
orbit number at epoch: 24020

The dashed part of the orbit path shows where the satellite is in the earth's shadow,  

DLR